TimeAST,TemperatureF,Dew PointF,Humidity,Sea Level PressureIn,VisibilityMPH,Wind Direction,Wind SpeedMPH,Gust SpeedMPH,PrecipitationIn,Events,Conditions,WindDirDegrees,DateUTC
12:00 AM,37.4,30.2,75,30.10,15.0,NW,6.9,-,N/A,,Partly Cloudy,320,2011-11-29 04:00:00
1:00 AM,37.4,30.2,75,30.13,15.0,WNW,6.9,-,N/A,,Partly Cloudy,290,2011-11-29 05:00:00
1:13 AM,37.4,-9999,N/A,-9999,15.0,West,5.8,-,N/A,,Mostly Cloudy,280,2011-11-29 05:13:00
2:00 AM,37,31,70,30.14,15,WNW,5.8,,,,Overcast,290,2011-11-29 06:00:00
2:00 AM,37.4,30.2,75,30.14,15.0,West,5.8,-,N/A,,Overcast,280,2011-11-29 06:00:00
3:00 AM,37.4,30.2,75,30.17,15.0,West,6.9,-,N/A,,Overcast,270,2011-11-29 07:00:00
4:00 AM,37.4,30.2,75,30.19,15.0,West,5.8,-,N/A,,Overcast,270,2011-11-29 08:00:00
5:00 AM,37.4,30.2,75,30.20,15.0,WNW,4.6,-,N/A,,Overcast,300,2011-11-29 09:00:00
5:17 AM,35.6,-9999,N/A,-9999,15.0,WNW,4.6,-,N/A,,Overcast,290,2011-11-29 09:17:00
6:00 AM,33.8,28.4,81,30.21,15.0,West,3.5,-,N/A,,Mostly Cloudy,270,2011-11-29 10:00:00
7:00 AM,32.0,28.4,87,30.22,15.0,Calm,Calm,-,N/A,,Mostly Cloudy,0,2011-11-29 11:00:00
8:00 AM,31,28,81,30.25,15,West,3.5,,,,Scattered Clouds,260,2011-11-29 12:00:00
8:00 AM,32.0,28.4,87,30.25,15.0,West,3.5,-,N/A,,Mostly Cloudy,260,2011-11-29 12:00:00
9:00 AM,35.6,30.2,81,30.25,15.0,SW,3.5,-,N/A,,Mostly Cloudy,220,2011-11-29 13:00:00
10:00 AM,39.2,30.2,70,30.27,15.0,SW,9.2,-,N/A,,Mostly Cloudy,220,2011-11-29 14:00:00
11:00 AM,41.0,33.8,76,30.25,15.0,SSW,12.7,-,N/A,,Mostly Cloudy,200,2011-11-29 15:00:00
12:00 PM,41.0,32.0,70,30.24,15.0,SSW,12.7,-,N/A,,Mostly Cloudy,210,2011-11-29 16:00:00
1:00 PM,42.8,32.0,66,30.22,15.0,SSW,10.4,-,N/A,,Mostly Cloudy,210,2011-11-29 17:00:00
2:00 PM,44,34,57,30.21,15,South,10.4,,,,Scattered Clouds,190,2011-11-29 18:00:00
2:00 PM,42.8,33.8,70,30.21,15.0,South,10.4,-,N/A,,Mostly Cloudy,190,2011-11-29 18:00:00
4:00 PM,42.8,33.8,70,30.20,15.0,South,6.9,-,N/A,,Mostly Cloudy,170,2011-11-29 20:00:00
5:00 PM,42.8,37.4,81,30.19,15.0,South,9.2,-,N/A,,Overcast,170,2011-11-29 21:00:00
6:00 PM,44.6,37.4,76,30.18,15.0,South,10.4,-,N/A,,Mostly Cloudy,180,2011-11-29 22:00:00
7:00 PM,44.6,39.2,81,30.18,15.0,South,11.5,-,N/A,,Mostly Cloudy,180,2011-11-29 23:00:00
8:00 PM,45,40,76,30.17,15,South,11.5,,,,Overcast,180,2011-11-30 00:00:00
8:00 PM,44.6,39.2,81,30.17,15.0,South,12.7,-,N/A,,Overcast,180,2011-11-30 00:00:00
9:00 PM,44.6,41.0,87,30.17,15.0,South,8.1,-,N/A,,Overcast,180,2011-11-30 01:00:00
10:00 PM,44.6,41.0,87,30.16,15.0,South,11.5,-,N/A,,Overcast,180,2011-11-30 02:00:00
11:00 PM,44.6,42.8,93,30.15,15.0,South,10.4,-,N/A,,Overcast,190,2011-11-30 03:00:00